FW1312 Weather Reports


Display with metric or nautical units.
time (UTC)temp
F
wind
direction
speed
MPH
gust
MPH
rain 1hr
in
rain 24hr
in
rain mn
in
humidity
%
barometer
mb
20260507191544 65 29 9.0 15.0 0.00 0.00 0.00 85 1016.2
20260507190021 64 41 5.0 16.0 0.00 0.00 0.00 85 1016.0
20260507184534 66 37 9.0 15.0 0.00 0.00 0.00 86 1016.5
20260507183024 65 43 6.0 12.0 0.00 0.00 0.00 86 1017.0
20260507181550 63 71 5.0 12.0 0.00 0.00 0.00 86 1016.4
20260507180040 64 38 3.0 12.0 0.00 0.00 0.00 86 1017.7
20260507174609 63 24 5.0 11.0 0.00 0.00 0.00 87 1017.3
20260507173045 63 19 4.0 16.0 0.00 0.00 0.00 87 1017.1
20260507171516 61 24 4.0 11.0 0.00 0.00 0.00 87 1016.9
20260507170018 61 26 5.0 14.0 0.00 0.00 0.00 87 1017.1
20260507164611 60 326 3.0 9.0 0.00 0.00 0.00 87 1017.3
20260507163017 60 5 4.0 10.0 0.00 0.00 0.00 87 1017.9
20260507161550 60 360 3.0 11.0 0.00 0.00 0.00 87 1017.7
20260507160055 60 20 6.0 15.0 0.00 0.00 0.00 87 1017.3
20260507154534 60 16 7.0 14.0 0.00 0.00 0.00 88 1017.2
20260507153032 60 54 7.0 15.0 0.00 0.00 0.00 88 1017.0
20260507151502 59 17 11.0 17.0 0.00 0.00 0.00 88 1016.8
20260507150104 59 30 7.0 14.0 0.00 0.00 0.00 88 1017.2
20260507144556 58 34 5.0 15.0 0.00 0.00 0.00 88 1017.6
20260507143046 58 75 9.0 17.0 0.00 0.00 0.00 88 1017.4
20260507141522 57 18 9.0 14.0 0.00 0.00 0.00 88 1017.3
20260507140042 57 360 6.0 17.0 0.00 0.00 0.00 88 1017.7
20260507134528 57 334 8.0 18.0 0.00 0.00 0.00 88 1018.1
20260507133036 57 9 8.0 16.0 0.00 0.00 0.00 88 1017.4
20260507131538 57 48 10.0 19.0 0.00 0.00 0.00 87 1017.3
20260507130019 57 360 9.0 15.0 0.00 0.00 0.00 87 1017.7
20260507124608 57 349 8.0 15.0 0.00 0.00 0.00 87 1017.2
20260507123035 58 25 9.0 13.0 0.00 0.00 0.00 87 1016.9
20260507121531 58 355 3.0 13.0 0.00 0.00 0.00 87 1017.1
20260507120016 58 360 5.0 16.0 0.00 0.00 0.00 87 1016.9
20260507114556 58 44 6.0 17.0 0.00 0.00 0.00 87 1015.8
20260507113009 58 333 7.0 15.0 0.00 0.00 0.00 87 1015.7
20260507024530 62 360 3.0 12.0 0.00 0.00 0.00 85 1013.4
20260507023010 62 355 3.0 14.0 0.00 0.00 0.00 85 1013.1
20260507021550 62 334 7.0 13.0 0.00 0.00 0.00 85 1012.6
20260507020013 62 355 7.0 13.0 0.00 0.00 0.00 85 1012.5
20260507014552 62 19 7.0 15.0 0.00 0.00 0.00 85 1012.4
20260507013022 62 309 7.0 14.0 0.00 0.00 0.00 85 1012.1
20260507011536 62 5 6.0 17.0 0.00 0.00 0.00 85 1011.7
20260507010017 63 355 8.0 12.0 0.00 0.00 0.00 85 1011.4
20260507004552 63 344 4.0 10.0 0.00 0.00 0.00 85 1011.2
20260507003026 63 330 6.0 13.0 0.00 0.00 0.00 85 1011.0
20260507001516 64 333 7.0 15.0 0.00 0.00 0.00 85 1011.1
20260507000107 64 333 9.0 15.0 0.00 0.00 0.00 85 1010.8
20260506234520 64 360 9.0 15.0 0.00 0.00 0.00 85 1010.6
20260506233014 65 305 9.0 16.0 0.00 0.00 0.00 85 1010.5
20260506231538 66 341 8.0 15.0 0.00 0.00 0.00 85 1010.5
20260506230030 67 345 4.0 13.0 0.00 0.00 0.00 86 1010.5
20260506224518 67 343 10.0 18.0 0.00 0.00 0.00 86 1010.3
20260506223006 68 11 9.0 16.0 0.00 0.00 0.00 86 1010.3
20260506221549 69 325 9.0 15.0 0.00 0.00 0.00 86 1010.1
20260506220019 69 355 5.0 16.0 0.00 0.00 0.00 87 1010.1
20260506214541 70 355 7.0 17.0 0.00 0.00 0.00 87 1009.8
20260506213011 70 316 9.0 16.0 0.00 0.00 0.00 87 1009.8
20260506211550 70 343 8.0 17.0 0.00 0.00 0.00 87 1010.0
20260506210035 70 338 8.0 16.0 0.00 0.00 0.00 87 1009.9
20260506204506 72 327 10.0 16.0 0.00 0.00 0.00 87 1009.8
20260506203012 73 323 9.0 13.0 0.00 0.00 0.00 88 1009.7
20260506201549 74 344 5.0 12.0 0.00 0.00 0.00 88 1009.7
20260506200030 74 331 6.0 14.0 0.00 0.00 0.00 88 1009.7
20260506194502 75 292 5.0 12.0 0.00 0.00 0.00 88 1009.6
20260506193103 74 328 6.0 9.0 0.00 0.00 0.00 89 1009.7